STARLINK-11460, 62069

Orbit data source: Space-Track

STARLINK-11460, 62069 is a payload satellite owned by SpaceX/Seattle (US) in LEO that was launched on Sun, 24 Nov 2024 UTC via an FALCON 9 launch vehicle from the Air Force Western Test Range (AFWTR). Payload-class satellites include a variety of spacecraft equipped with specific instruments for various scientific and technological missions. These include communications satellites like Starlink; space stations such as the ISS; scientific satellites like the Hubble; Earth observation satellites from companies like Planet Labs, Umbra, and HawkEye 360; GPS; miniature CubeSats for education and research; and military/defense satellites.

Loading next visibility...
Identifier
62069, 2024-217N
Orbit
LEO
Country
Flag of USUS
Related business
Manufacturer
SpaceX/Seattle
Mission
Operational Commercial Communications
Bus & Motor
STARLINK V2MD, Unknown motor
Mass
960 kg wet, ~910 kg dry
Launch date (UTC)
2024-11-24 (1 year ago)
Launch vehicle
FALCON 9
Launch site
Air Force Western Test Range (AFWTR)
Object type
Payload
Rocket body
Debris
Shape & HBR
Box + 2 Pan, 18.1 m
Radar Cross Section
36.964 m², Large (>1 m²)

Expand to show TLE details & history
Last TLE update: 19 hours ago

TLE from 19 hours ago
0 STARLINK-11460
1 62069U 24217N   26094.88470605  .00063067  00000-0  52149-3 0  9994
2 62069  53.1558 302.4227 0000912  42.2128 317.8960 15.69708701 79221
Epoch: 2026-04-04T21:13Z
TLE epoch observation values (Epoch: 2026-04-04T21:13:58.602Z)
Latitude
-0.00003°
Longitude
150.73043°
Altitude
360.189 km
Speed
7.695 km/s
True Right ascension
20h 09m 41s
True Declination
0° 00' 00"
Sunlit
Object was in daylight at epoch
Visualization orbit readout
Latitude
Unknown
Longitude
Unknown
Altitude
Unknown
Speed
Unknown
Apparent Right ascension
Unknown
Apparent Declination
Unknown
Sunlit
N/A
Visualization observer readout
Local Sidereal Time
21:56:25
Azimuth
Unknown
Elevation
Unknown
Doppler factor
Unknown
Orbital elements
Apogee altitude
360.606 km
Perigee altitude
359.377 km
Semi-major axis
6,738.129 km
Eccentricity
0.00009
Inclination
53.1558°
RAAN
302.4227°
Arg. of periapsis
42.2128°
True anomaly
317.88899°
Mean anomaly
317.896°
Eccentric anomaly
317.8925°
Mean motion
3.92405 °/min
Orbital period
91.74 mins
BSTAR
0.00052149
Loading maneuver chart data...
Computing Atmospheric mass density...
Loading historical data...
Loading historical data...
Loading historical data...
Loading historical data...
Loading historical data...
Loading historical data...
Loading historical data...

Documentation

Showing up to 5 results
|